Powrót do katalogu

STARLINK-36292

AktywnyŁącznośćVLEO
NORAD 68509·PAYLOAD·🇺🇸 United States

Wystrzelony Mar 30, 2026 z Cape Canaveral Space Force Station

Loading…

Następne Przeloty (najbliższe 24 godziny)

TLE

ŚwieżeSource: CelesTrak SupGP

Epoka: Sep 14, 2026, 23:17 UTC

1 68509C 26068B   26257.97062500  .00031259  00000+0  92370-3 0  2571
2 68509  53.1595 325.2383 0001244  83.6496 247.0888 15.34370066    14

Śledź STARLINK-36292 w czasie rzeczywistym z AllMySat

Download on the App Store